Showing default

COSMOS 1989 (ETALON 1), 19751

Orbit data source: Space-Track

COSMOS 1989 (ETALON 1), 19751 is a payload satellite owned by NPO PM (CIS) in MEO that was launched on Tue, 10 Jan 1989 UTC via a PROTON-K/DM-2 launch vehicle from the Tyuratam Missile And Space Complex (TTMTR). Payload-class satellites include a variety of spacecraft equipped with specific instruments for various scientific and technological missions. These include communications satellites like Starlink; space stations such as the ISS; scientific satellites like the Hubble; Earth observation satellites from companies like Planet Labs, Umbra, and HawkEye 360; GPS; miniature CubeSats for education and research; and military/defense satellites.

Loading next visibility...
Identifier
19751, 1989-001C
Orbit
MEO
Country
Flag of CISCIS
Related business
Manufacturer
OAZ?
Mission
Operational Defense Geodetic
Bus & Motor
ETALON, Unknown motor
Mass
1,230 kg wet, 1,230 kg dry
Launch date (UTC)
1989-01-10 (37 years ago)
Launch vehicle
PROTON-K/DM-2
Launch site
Tyuratam Missile And Space Complex (TTMTR)
Object type
Payload
Rocket body
Debris
Shape & HBR
Sphere, 0.6 m
Radar Cross Section
1.307 m², Large (>1 m²)

Expand to show TLE details & history
Last TLE update: 2 days ago

TLE from 2 days ago
0 COSMOS 1989 (ETALON 1)
1 19751U 89001C   26171.29910284 -.00000041  00000-0  00000+0 0  9998
2 19751  64.9471  72.0890 0023318 217.5749 335.3242  2.13155980291439
Epoch: 2026-06-20T07:10Z
TLE epoch observation values (Epoch: 2026-06-20T07:10:42.485Z)
Latitude
-11.60736°
Longitude
-118.59571°
Altitude
19,074.398 km
Speed
3.962 km/s
True Right ascension
17h 10m 23s
True Declination
-11° 35' 18"
Sunlit
Object was in daylight at epoch
Visualization orbit readout
Latitude
Unknown
Longitude
Unknown
Altitude
Unknown
Speed
Unknown
Apparent Right ascension
Unknown
Apparent Declination
Unknown
Sunlit
N/A
Visualization observer readout
Local Sidereal Time
23:21:11
Azimuth
Unknown
Elevation
Unknown
Doppler factor
Unknown
Orbital elements
Apogee altitude
19,184.666 km
Perigee altitude
19,065.729 km
Semi-major axis
25,503.334 km
Eccentricity
0.00233
Inclination
64.9471°
RAAN
72.089°
Arg. of periapsis
217.5749°
True anomaly
335.21235°
Mean anomaly
335.3242°
Eccentric anomaly
335.2683°
Mean motion
0.5329 °/min
Orbital period
675.55 mins
BSTAR
0
Loading maneuver chart data...
Computing Atmospheric mass density...
Loading historical data...
Loading historical data...
Loading historical data...
Loading historical data...
Loading historical data...
Loading historical data...
Loading historical data...

Documentation

Showing up to 5 results
|